[[{"header":{"parameterUnit":"m.s-1","parameterCategory":1,"la1":30.2991,"la2":30.254,"lo1":-89.0895,"lo2":-89.0444,"dy":0.0017,"dx":0.0017,"nx":28,"ny":28,"refTime":"2025-02-25T03:00:00:Z","depth":0,"parameterNumber":2,"parameterNumberName":"U-component_of_WINDS"},"data":[0,0,0,0,0,0,0,0,0,0,0,0,0,0,0,0,0,0,0,0,0,0,0,0,0,0,0,0,0,0,0,0,0,0,0,0,0,0,0,0,0,0,0,0,0,0,0,0,0,0,0,0,0,0,0,0,0,0,1.1391,1.1392,0,1.1479,1.148,1.1482,1.1482,1.148,1.1479,1.1478,1.1572,1.1575,1.1579,0,0,0,0,0,0,0,0,0,0,0,0,0,1.1224,1.1227,1.1391,1.1392,1.1393,1.1479,1.1481,1.1482,1.1482,1.148,1.1479,1.1478,1.157,1.1575,1.1579,0,0,0,0,0,0,0,0,0,0,0,0,0,1.1303,1.1228,1.1391,1.1403,1.1405,1.1479,1.1481,1.1482,1.1482,1.148,1.1479,1.1477,1.1569,1.1574,1.158,1.1647,0,0,1.1596,1.1598,0,0,0,0,0,0,0,0,1.1299,1.1309,1.14,1.1403,1.1405,1.1468,1.1456,1.1538,1.1483,1.1453,1.1478,1.1476,1.1539,1.1546,1.1567,1.1652,1.1656,1.1596,1.16,1.1602,1.1603,0,0,0,0,0,0,0,1.1293,1.1306,1.1426,1.1402,1.1405,1.1406,1.1415,1.1472,1.1505,1.1456,1.1456,1.1466,1.154,1.1562,1.1569,1.1657,1.1596,1.1601,1.1604,1.1606,1.1803,1.1805,0,0,0,0,0,0,1.1285,1.1301,1.1423,1.1429,1.1346,1.141,1.142,1.1449,1.1504,1.1511,1.1467,1.1466,1.1553,1.1563,1.1572,1.1656,1.1602,1.1607,1.161,1.1801,1.1803,1.1805,0,0,0,0,0,0,1.1281,1.1296,1.142,1.1365,1.1381,1.1415,1.1447,1.1452,1.1474,1.1513,1.1519,1.1484,1.1552,1.1565,1.1629,1.1659,1.1609,1.1614,1.1798,1.1801,1.1804,1.1824,0,0,0,0,0,0,1.1276,1.1294,1.132,1.1365,1.1384,1.1474,1.1449,1.1455,1.1483,1.1482,1.153,1.1536,1.1552,1.1621,1.1634,1.1666,1.1618,1.1796,1.18,1.1803,1.182,1.1827,1.1832,0,0,0,0,0,1.1271,1.1322,1.1321,1.1336,1.1416,1.1475,1.1486,1.1502,1.1485,1.1512,1.1537,1.1535,1.1653,1.1627,1.1642,1.1676,1.1794,1.1799,1.1803,1.1818,1.1826,1.1832,0,0,0,0,0,0,1.128,1.1328,1.1328,1.1396,1.1431,1.1475,1.1509,1.151,1.1552,1.1549,1.1568,1.1579,1.1643,1.1666,1.1636,1.1745,1.1722,1.173,1.1728,1.1736,1.1742,1.1735,1.1623,0,0,0,0,0,1.129,1.1334,1.1373,1.1429,1.1447,1.1475,1.1502,1.1511,1.1549,1.1565,1.1594,1.1632,1.1678,1.1708,1.1752,1.1823,1.1834,1.1854,1.186,1.1865,1.1872,1.1912,1.1922,1.182,1.182,1.182,0,0,1.1312,1.1343,1.1369,1.1432,1.1461,1.1507,1.1488,1.1537,1.1571,1.1572,1.1634,1.1657,1.1701,1.1769,1.18,1.179,1.1902,1.187,1.1874,1.1879,1.1918,1.1927,1.1936,1.1823,1.1823,1.1822,0,0,1.1374,1.1401,1.1451,1.1481,1.1524,1.1542,1.1554,1.1598,1.1613,1.1675,1.1678,1.1719,1.1797,1.1829,1.1855,1.1928,1.1929,1.1942,1.1975,1.2014,1.2022,1.2029,1.2056,1.2066,1.1949,1.1949,1.1949,0,1.1395,1.1463,1.1477,1.1526,1.1555,1.1556,1.1608,1.1636,1.1692,1.1712,1.1699,1.1798,1.1827,1.1903,1.1921,1.1941,1.1957,1.1938,1.2019,1.2026,1.2033,1.206,1.207,1.195,1.195,1.195,1.195,0,1.1488,1.1534,1.157,1.1623,1.1655,1.1705,1.1728,1.1759,1.1765,1.1785,1.1849,1.1884,1.1936,1.1954,1.1961,1.2032,1.2024,1.2015,1.1992,1.2044,1.207,1.208,1.1952,1.1952,1.1952,1.1951,0,0,1.156,1.162,1.1633,1.1657,1.1705,1.1742,1.1793,1.1842,1.1869,1.1907,1.1951,1.2017,1.2009,1.2039,1.2049,1.2083,1.2141,1.207,1.2072,1.2083,1.2222,1.2229,1.2241,1.2141,1.2143,1.2144,1.2219,0,1.1628,1.1717,1.1731,1.181,1.1854,1.1856,1.19,1.1935,1.1955,1.1996,1.2018,1.2065,1.205,1.2068,1.2102,1.2127,1.2169,1.2122,1.2183,1.2185,1.2173,1.2254,1.2262,1.2331,1.2229,1.223,1.2231,0,1.172,1.176,1.1843,1.1885,1.1904,1.1943,1.199,1.2029,1.2069,1.2081,1.2114,1.212,1.2174,1.2147,1.2222,1.2189,1.2215,1.2231,1.2234,1.2242,1.2212,1.2265,1.2353,1.2363,1.2247,1.2246,1.2245,0,1.1766,1.1841,1.19,1.1921,1.1971,1.1999,1.2021,1.2059,1.2088,1.2129,1.2149,1.2196,1.2222,1.2259,1.2279,1.2257,1.2352,1.2327,1.2365,1.2365,1.2386,1.2385,1.248,1.24,1.24,1.24,1.24,0,1.1842,1.1893,1.1921,1.1958,1.2015,1.2031,1.2088,1.211,1.2143,1.2185,1.219,1.2229,1.2251,1.2294,1.231,1.237,1.2381,1.2393,1.2397,1.2394,1.2393,1.2412,1.2409,1.2403,1.2402,1.2402,1.2401,0,1.1904,1.1925,1.199,1.2032,1.2043,1.2084,1.212,1.2157,1.2175,1.2228,1.2242,1.2272,1.2323,1.2345,1.2408,1.2418,1.2487,1.2487,1.2474,1.2475,1.2512,1.2509,1.2625,1.2641,1.2549,1.255,1.255,0,1.1952,1.1991,1.2036,1.2064,1.2087,1.2132,1.2161,1.2179,1.221,1.2258,1.2288,1.2339,1.238,1.2461,1.249,1.2538,1.2539,1.2577,1.2547,1.2542,1.2542,1.254,1.2544,1.2583,1.2584,1.2584,1.2585,0,1.2035,1.2043,1.2085,1.213,1.2165,1.2202,1.2239,1.2261,1.2285,1.2319,1.237,1.2402,1.2466,1.2517,1.2566,1.259,1.2593,1.2594,1.2605,1.2603,1.2594,1.2601,1.249,1.2592,1.2591,1.259,1.259,1.259,1.2092,1.2127,1.2165,1.2211,1.224,1.2274,1.231,1.2333,1.2376,1.2428,1.2436,1.2491,1.253,1.2597,1.2623,1.2667,1.2658,1.2675,1.2679,1.2683,1.2686,1.2586,1.2676,1.2676,1.2676,1.2676,1.2676,0,1.2177,1.2201,1.2243,1.2293,1.233,1.2327,1.2367,1.2398,1.2446,1.2482,1.2523,1.2582,1.2631,1.2663,1.2712,1.2741,1.2744,1.2754,1.2753,1.2759,1.269,1.2676,1.2752,1.2752,1.2752,1.2752,1.2752,1.2751,1.2225,1.2284,1.2297,1.2371,1.2395,1.2448,1.2471,1.2503,1.2531,1.2597,1.2637,1.2657,1.2692,1.2744,1.2789,1.2797,1.2816,1.2827,1.2835,1.2771,1.2763,1.2756,1.2743,1.2831,1.2831,1.29,1.2901,1.2901]},{"header":{"parameterUnit":"m.s-1","parameterCategory":1,"la1":30.2991,"la2":30.254,"lo1":-89.0895,"lo2":-89.0444,"dy":0.0017,"dx":0.0017,"nx":28,"ny":28,"refTime":"2025-02-25T03:00:00:Z","depth":0,"parameterNumber":3,"parameterNumberName":"V-component_of_WINDS"},"data":[0,0,0,0,0,0,0,0,0,0,0,0,0,0,0,0,0,0,0,0,0,0,0,0,0,0,0,0,0,0,0,0,0,0,0,0,0,0,0,0,0,0,0,0,0,0,0,0,0,0,0,0,0,0,0,0,0,0,-1.2704,-1.2705,0,-1.2789,-1.279,-1.2791,-1.2837,-1.2837,-1.2837,-1.2837,-1.2926,-1.2929,-1.2931,0,0,0,0,0,0,0,0,0,0,0,0,0,-1.2585,-1.2587,-1.2704,-1.2705,-1.2706,-1.2789,-1.279,-1.2791,-1.2837,-1.2837,-1.2837,-1.2837,-1.2926,-1.2928,-1.2931,0,0,0,0,0,0,0,0,0,0,0,0,0,-1.265,-1.2588,-1.2704,-1.2739,-1.2742,-1.2789,-1.279,-1.2792,-1.2836,-1.2837,-1.2837,-1.2837,-1.2925,-1.2928,-1.2931,-1.295,0,0,-1.2942,-1.2944,0,0,0,0,0,0,0,0,-1.2646,-1.2654,-1.2732,-1.2736,-1.2741,-1.2802,-1.2781,-1.2845,-1.2836,-1.2801,-1.2837,-1.2837,-1.2885,-1.2892,-1.2908,-1.2955,-1.2958,-1.2942,-1.2944,-1.2946,-1.2947,0,0,0,0,0,0,0,-1.2642,-1.2651,-1.2738,-1.2733,-1.2739,-1.2751,-1.2761,-1.2793,-1.2841,-1.2804,-1.2807,-1.2817,-1.2887,-1.2904,-1.291,-1.296,-1.2942,-1.2945,-1.2947,-1.2949,-1.303,-1.303,0,0,0,0,0,0,-1.2631,-1.2647,-1.2735,-1.274,-1.2693,-1.2753,-1.2764,-1.2782,-1.2841,-1.285,-1.2817,-1.2819,-1.2898,-1.2906,-1.2913,-1.2941,-1.2946,-1.2949,-1.2951,-1.303,-1.303,-1.303,0,0,0,0,0,0,-1.2628,-1.2639,-1.2732,-1.2695,-1.2707,-1.2755,-1.2776,-1.2784,-1.2801,-1.2851,-1.286,-1.2825,-1.2899,-1.2909,-1.2941,-1.2945,-1.2951,-1.2954,-1.303,-1.303,-1.303,-1.2996,0,0,0,0,0,0,-1.2625,-1.2637,-1.2644,-1.2694,-1.2709,-1.2757,-1.2776,-1.2786,-1.2806,-1.281,-1.286,-1.2869,-1.2899,-1.2936,-1.2945,-1.295,-1.2957,-1.303,-1.303,-1.303,-1.2997,-1.2995,-1.2993,0,0,0,0,0,-1.262,-1.2631,-1.2644,-1.2654,-1.2718,-1.2757,-1.2765,-1.2799,-1.2806,-1.2814,-1.2847,-1.2867,-1.2943,-1.2939,-1.2949,-1.2955,-1.3029,-1.303,-1.303,-1.2998,-1.2995,-1.2993,0,0,0,0,0,0,-1.2579,-1.2638,-1.2653,-1.2679,-1.2713,-1.2764,-1.2775,-1.2795,-1.2828,-1.2829,-1.2871,-1.2883,-1.2912,-1.2937,-1.2931,-1.2978,-1.2989,-1.2991,-1.2961,-1.2959,-1.2957,-1.295,-1.2959,0,0,0,0,0,-1.2573,-1.2598,-1.2649,-1.2667,-1.2683,-1.2726,-1.2744,-1.2768,-1.2804,-1.2819,-1.2853,-1.2889,-1.2921,-1.2941,-1.2973,-1.3001,-1.3014,-1.301,-1.3008,-1.3007,-1.3008,-1.3027,-1.3027,-1.303,-1.303,-1.303,0,0,-1.2561,-1.2596,-1.2609,-1.266,-1.2689,-1.2716,-1.2738,-1.2764,-1.2786,-1.2823,-1.2856,-1.2883,-1.2926,-1.2957,-1.2972,-1.2979,-1.301,-1.3007,-1.3005,-1.3008,-1.3027,-1.3027,-1.3026,-1.3031,-1.3031,-1.303,0,0,-1.2553,-1.2581,-1.2601,-1.2629,-1.2672,-1.2701,-1.2706,-1.2755,-1.2774,-1.2808,-1.2838,-1.2864,-1.2918,-1.2948,-1.297,-1.2976,-1.2997,-1.2985,-1.2975,-1.2993,-1.2993,-1.2993,-1.2997,-1.2997,-1.2987,-1.2987,-1.2987,0,-1.2532,-1.2573,-1.2608,-1.2634,-1.2657,-1.2692,-1.2714,-1.274,-1.2791,-1.2807,-1.2813,-1.2883,-1.2914,-1.2954,-1.2956,-1.2972,-1.298,-1.2979,-1.299,-1.299,-1.2991,-1.2995,-1.2996,-1.2985,-1.2985,-1.2985,-1.2986,0,-1.2546,-1.2574,-1.2585,-1.2634,-1.2658,-1.2681,-1.2723,-1.2743,-1.2765,-1.2794,-1.283,-1.2869,-1.291,-1.2922,-1.2943,-1.2965,-1.2968,-1.2981,-1.2993,-1.2988,-1.2993,-1.2995,-1.2983,-1.2983,-1.2984,-1.2984,0,0,-1.2513,-1.2583,-1.2586,-1.261,-1.2661,-1.2684,-1.2711,-1.2751,-1.2769,-1.2804,-1.2828,-1.2874,-1.2888,-1.2913,-1.2939,-1.2955,-1.296,-1.2967,-1.2969,-1.2965,-1.2989,-1.2978,-1.2979,-1.2974,-1.2975,-1.2975,-1.2985,0,-1.2513,-1.256,-1.2595,-1.263,-1.2657,-1.2693,-1.2716,-1.2751,-1.278,-1.2809,-1.284,-1.2873,-1.2888,-1.2904,-1.2921,-1.2955,-1.2965,-1.2955,-1.2999,-1.3,-1.2987,-1.2982,-1.297,-1.2978,-1.2987,-1.2988,-1.2988,0,-1.2518,-1.2552,-1.259,-1.264,-1.2653,-1.2673,-1.2715,-1.2741,-1.2783,-1.2803,-1.2832,-1.2859,-1.2891,-1.29,-1.2945,-1.2938,-1.2958,-1.2978,-1.298,-1.2985,-1.2994,-1.2988,-1.2981,-1.2983,-1.2991,-1.2991,-1.299,0,-1.2492,-1.2547,-1.2577,-1.2596,-1.2656,-1.2669,-1.2695,-1.2737,-1.276,-1.2797,-1.2812,-1.2852,-1.2874,-1.2906,-1.2944,-1.2946,-1.2987,-1.2998,-1.3005,-1.3005,-1.3012,-1.3011,-1.3009,-1.3024,-1.3024,-1.3024,-1.3024,0,-1.2488,-1.251,-1.2566,-1.2585,-1.2612,-1.2652,-1.2678,-1.2707,-1.2744,-1.2771,-1.2804,-1.2829,-1.2877,-1.2909,-1.2939,-1.2973,-1.2983,-1.3001,-1.3009,-1.2998,-1.2996,-1.3012,-1.3013,-1.3024,-1.3024,-1.3024,-1.3024,0,-1.2462,-1.2501,-1.2536,-1.259,-1.2605,-1.2622,-1.2669,-1.269,-1.2721,-1.2754,-1.2764,-1.2813,-1.2852,-1.2893,-1.2946,-1.2966,-1.3,-1.301,-1.2985,-1.299,-1.2996,-1.2995,-1.3005,-1.3009,-1.302,-1.3019,-1.3019,0,-1.2457,-1.2475,-1.2531,-1.2551,-1.2576,-1.2607,-1.2631,-1.2673,-1.2697,-1.2747,-1.2763,-1.2804,-1.2839,-1.2899,-1.2941,-1.2982,-1.2994,-1.2995,-1.3001,-1.299,-1.2996,-1.2995,-1.2998,-1.2993,-1.2993,-1.2993,-1.2992,0,-1.2445,-1.2464,-1.2497,-1.2537,-1.2564,-1.2598,-1.2633,-1.2648,-1.2697,-1.2723,-1.2763,-1.279,-1.2844,-1.2886,-1.2932,-1.2961,-1.2986,-1.299,-1.2995,-1.2984,-1.297,-1.2979,-1.2981,-1.299,-1.299,-1.299,-1.299,-1.2991,-1.2431,-1.245,-1.2492,-1.2528,-1.256,-1.2592,-1.2615,-1.2649,-1.2683,-1.273,-1.2753,-1.2793,-1.2838,-1.2903,-1.2931,-1.2965,-1.2972,-1.2977,-1.2979,-1.298,-1.2978,-1.2964,-1.2973,-1.2973,-1.2973,-1.2974,-1.2974,0,-1.2422,-1.2452,-1.2484,-1.2533,-1.2562,-1.2582,-1.2623,-1.2647,-1.2681,-1.272,-1.2754,-1.2802,-1.2843,-1.2888,-1.2932,-1.2951,-1.2963,-1.2961,-1.296,-1.2967,-1.2968,-1.2961,-1.295,-1.295,-1.295,-1.295,-1.295,-1.295,-1.242,-1.2453,-1.2478,-1.2528,-1.2558,-1.2597,-1.2619,-1.265,-1.2682,-1.2733,-1.2767,-1.2796,-1.2838,-1.2887,-1.2926,-1.2938,-1.2954,-1.2948,-1.2964,-1.2965,-1.2967,-1.2968,-1.2962,-1.2951,-1.2951,-1.296,-1.296,-1.2961]}]]